NWS113 USCC-USSS

Flight info

Callsign NWS113
Flight time 0h 22m
Altitude 14000
Route PESAM
Aircraft B738/M-SDE2E3FGHIRWXY/LB1

Departure

Time 2026-04-28 16:30
Airport Kurchatov Chelyabinsk International Airport (USCC)

Arrival

Time 2026-04-28 16:52
Airport Koltsovo Airport (USSS)
Time Latitude Longitude Altitude Speed Heading
2026-04-28 16:18 55.29888 61.50980 745 ft 0 kts 193°
2026-04-28 16:19 55.29900 61.50985 745 ft 2 kts 193°
2026-04-28 16:19 55.29915 61.50991 745 ft 2 kts 193°
2026-04-28 16:20 55.29926 61.50996 745 ft 2 kts 194°
2026-04-28 16:20 55.29940 61.51007 745 ft 2 kts 224°
2026-04-28 16:20 55.29949 61.51028 745 ft 2 kts 249°
2026-04-28 16:20 55.29951 61.51054 745 ft 1 kts 276°
2026-04-28 16:21 55.29950 61.51065 744 ft 1 kts 287°
2026-04-28 16:21 55.29950 61.51071 744 ft 0 kts 283°
2026-04-28 16:23 55.29950 61.51069 744 ft 1 kts 283°
2026-04-28 16:23 55.29951 61.51059 744 ft 0 kts 283°
2026-04-28 16:23 55.29955 61.51028 745 ft 4 kts 283°
2026-04-28 16:23 55.29964 61.50956 746 ft 7 kts 283°
2026-04-28 16:24 55.29978 61.50848 747 ft 9 kts 282°
2026-04-28 16:24 55.29995 61.50718 748 ft 12 kts 283°
2026-04-28 16:24 55.30017 61.50558 750 ft 14 kts 283°
2026-04-28 16:24 55.30042 61.50371 752 ft 17 kts 284°
2026-04-28 16:25 55.30071 61.50161 755 ft 13 kts 283°
2026-04-28 16:25 55.30102 61.50025 756 ft 11 kts 328°
2026-04-28 16:25 55.30181 61.50038 756 ft 13 kts 15°
2026-04-28 16:25 55.30299 61.50089 757 ft 20 kts 14°
2026-04-28 16:26 55.30405 61.50104 757 ft 14 kts 322°
2026-04-28 16:26 55.30438 61.49952 758 ft 13 kts 284°
2026-04-28 16:26 55.30468 61.49739 760 ft 22 kts 284°
2026-04-28 16:26 55.30512 61.49421 763 ft 31 kts 283°
2026-04-28 16:27 55.30568 61.49007 764 ft 39 kts 283°
2026-04-28 16:27 55.30631 61.48555 763 ft 31 kts 283°
2026-04-28 16:27 55.30670 61.48266 761 ft 0 kts 283°
2026-04-28 16:28 55.30671 61.48264 761 ft 0 kts 283°
2026-04-28 16:28 55.30671 61.48263 761 ft 0 kts 283°
2026-04-28 16:28 55.30680 61.48215 761 ft 7 kts 295°
2026-04-28 16:28 55.30719 61.48168 760 ft 7 kts 355°
2026-04-28 16:29 55.30838 61.48212 759 ft 5 kts 13°
2026-04-28 16:29 55.30843 61.48425 760 ft 34 kts 105°
2026-04-28 16:30 55.30718 61.49323 763 ft 113 kts 102°
2026-04-28 16:30 55.30485 61.51035 803 ft 171 kts 107°
2026-04-28 16:30 55.30225 61.52997 1655 ft 168 kts 110°
2026-04-28 16:30 55.30084 61.55064 2154 ft 184 kts 80°
2026-04-28 16:31 55.30794 61.56892 2748 ft 189 kts 28°
2026-04-28 16:31 55.31991 61.57438 3438 ft 178 kts 353°
2026-04-28 16:31 55.33189 61.57032 4029 ft 178 kts 338°
2026-04-28 16:31 55.34402 61.56428 4526 ft 190 kts 340°
2026-04-28 16:32 55.35731 61.55861 4975 ft 205 kts 340°
2026-04-28 16:32 55.38756 61.54531 5805 ft 246 kts 342°
2026-04-28 16:32 55.40442 61.53864 6449 ft 255 kts 343°
2026-04-28 16:33 55.42144 61.53199 7368 ft 253 kts 341°
2026-04-28 16:33 55.42729 61.52961 7420 ft 263 kts 341°
2026-04-28 16:33 55.45866 61.51601 8335 ft 286 kts 340°
2026-04-28 16:33 55.47856 61.50675 8712 ft 308 kts 340°
2026-04-28 16:34 55.49915 61.49754 9556 ft 310 kts 340°
2026-04-28 16:34 55.52026 61.48843 10287 ft 316 kts 340°
2026-04-28 16:34 55.54176 61.47915 10768 ft 331 kts 340°
2026-04-28 16:34 55.56459 61.46923 11298 ft 344 kts 340°
2026-04-28 16:35 55.58816 61.45893 11713 ft 361 kts 340°
2026-04-28 16:35 55.61295 61.44813 12367 ft 370 kts 340°
2026-04-28 16:35 55.63782 61.43736 13128 ft 375 kts 340°
2026-04-28 16:35 55.66344 61.42627 13780 ft 382 kts 340°
2026-04-28 16:36 55.68908 61.41511 14057 ft 385 kts 340°
2026-04-28 16:36 55.71514 61.40379 14067 ft 383 kts 340°
2026-04-28 16:36 55.74077 61.39264 14064 ft 383 kts 339°
2026-04-28 16:36 55.76675 61.38129 14062 ft 383 kts 339°
2026-04-28 16:37 55.79230 61.37009 14062 ft 382 kts 339°
2026-04-28 16:37 55.81814 61.35874 14061 ft 381 kts 339°
2026-04-28 16:37 55.84375 61.34743 14064 ft 382 kts 339°
2026-04-28 16:38 55.89504 61.32475 14060 ft 380 kts 338°
2026-04-28 16:38 55.92087 61.31362 14060 ft 382 kts 340°
2026-04-28 16:38 55.94666 61.30371 14056 ft 384 kts 341°
2026-04-28 16:38 55.97282 61.29449 14050 ft 376 kts 341°
2026-04-28 16:39 55.99766 61.28618 14051 ft 359 kts 341°
2026-04-28 16:39 56.02183 61.27813 14051 ft 345 kts 341°
2026-04-28 16:39 56.04516 61.27010 14054 ft 347 kts 341°
2026-04-28 16:39 56.06898 61.26159 13947 ft 347 kts 340°
2026-04-28 16:40 56.09227 61.25341 13630 ft 344 kts 341°
2026-04-28 16:40 56.11592 61.24603 13205 ft 344 kts 343°
2026-04-28 16:40 56.13928 61.23933 12762 ft 344 kts 343°
2026-04-28 16:40 56.16295 61.23268 12315 ft 343 kts 344°
2026-04-28 16:41 56.18621 61.22609 11879 ft 342 kts 344°
2026-04-28 16:41 56.20967 61.21936 11456 ft 340 kts 344°
2026-04-28 16:41 56.23268 61.21267 11022 ft 338 kts 345°
2026-04-28 16:41 56.25592 61.20587 10596 ft 336 kts 345°
2026-04-28 16:42 56.27902 61.19907 10190 ft 334 kts 345°
2026-04-28 16:42 56.30140 61.19252 9996 ft 324 kts 345°
2026-04-28 16:42 56.32308 61.18619 9755 ft 317 kts 345°
2026-04-28 16:42 56.34495 61.17971 9326 ft 317 kts 345°
2026-04-28 16:43 56.36640 61.17330 8953 ft 315 kts 345°
2026-04-28 16:43 56.38800 61.16683 8579 ft 313 kts 346°
2026-04-28 16:43 56.40946 61.16043 8206 ft 310 kts 346°
2026-04-28 16:43 56.43046 61.15418 7837 ft 308 kts 346°
2026-04-28 16:44 56.45159 61.14788 7468 ft 306 kts 346°
2026-04-28 16:44 56.47224 61.14173 7107 ft 303 kts 346°
2026-04-28 16:44 56.49304 61.13557 6747 ft 301 kts 346°
2026-04-28 16:44 56.51338 61.12948 6375 ft 298 kts 346°
2026-04-28 16:45 56.53387 61.12418 6030 ft 296 kts 351°
2026-04-28 16:45 56.55419 61.12250 5674 ft 295 kts 355°
2026-04-28 16:45 56.57475 61.12283 5337 ft 293 kts 357°
2026-04-28 16:45 56.59460 61.12355 5184 ft 283 kts 356°
2026-04-28 16:46 56.61369 61.12415 5088 ft 263 kts 356°
2026-04-28 16:46 56.63111 61.12451 5027 ft 244 kts 355°
2026-04-28 16:46 56.64758 61.12408 4903 ft 229 kts 351°
2026-04-28 16:46 56.66334 61.12186 4614 ft 232 kts 348°
2026-04-28 16:47 56.67938 61.11883 4356 ft 229 kts 348°
2026-04-28 16:47 56.69494 61.11592 4149 ft 224 kts 348°
2026-04-28 16:47 56.70981 61.11095 3971 ft 207 kts 334°
2026-04-28 16:47 56.72098 61.09821 3792 ft 181 kts 305°
2026-04-28 16:48 56.72765 61.07999 3552 ft 167 kts 290°
2026-04-28 16:48 56.73095 61.06152 3387 ft 144 kts 273°
2026-04-28 16:48 56.73136 61.04405 3251 ft 132 kts 269°
2026-04-28 16:48 56.73196 61.02750 3085 ft 134 kts 271°
2026-04-28 16:49 56.73272 61.01075 2837 ft 130 kts 271°
2026-04-28 16:49 56.73340 60.99442 2682 ft 132 kts 271°
2026-04-28 16:49 56.73415 60.97741 2527 ft 132 kts 271°
2026-04-28 16:49 56.73478 60.96061 2301 ft 135 kts 271°
2026-04-28 16:50 56.73551 60.94379 2100 ft 131 kts 273°
2026-04-28 16:50 56.73614 60.92745 1965 ft 128 kts 271°
2026-04-28 16:50 56.73690 60.91099 1750 ft 132 kts 274°
2026-04-28 16:50 56.73766 60.89463 1597 ft 131 kts 272°
2026-04-28 16:51 56.73818 60.87763 1416 ft 134 kts 274°
2026-04-28 16:51 56.73909 60.86042 1218 ft 139 kts 274°
2026-04-28 16:51 56.73970 60.84330 1018 ft 135 kts 273°
2026-04-28 16:51 56.74042 60.82622 846 ft 134 kts 275°
2026-04-28 16:52 56.74110 60.80999 776 ft 107 kts 274°
2026-04-28 16:52 56.74148 60.80043 776 ft 51 kts 274°
2026-04-28 16:52 56.74169 60.79476 776 ft 38 kts 274°
2026-04-28 16:52 56.74182 60.79163 776 ft 18 kts 280°
2026-04-28 16:53 56.74249 60.79098 776 ft 11 kts 12°
2026-04-28 16:53 56.74323 60.79124 776 ft 7 kts
2026-04-28 16:53 56.74375 60.79139 776 ft 7 kts
2026-04-28 16:53 56.74446 60.79163 776 ft 11 kts 11°
2026-04-28 16:54 56.74527 60.79188 776 ft 11 kts
2026-04-28 16:54 56.74607 60.79185 776 ft 11 kts
2026-04-28 16:54 56.74687 60.79187 776 ft 11 kts
2026-04-28 16:54 56.74739 60.79186 776 ft 11 kts 359°
2026-04-28 16:55 56.74840 60.79209 776 ft 10 kts 45°
2026-04-28 16:55 56.74853 60.79341 776 ft 11 kts 89°
2026-04-28 16:55 56.74852 60.79482 776 ft 11 kts 91°
2026-04-28 16:55 56.74851 60.79613 776 ft 10 kts 89°
2026-04-28 16:56 56.74852 60.79730 776 ft 7 kts 90°
2026-04-28 16:56 56.74864 60.79816 776 ft 7 kts 38°
2026-04-28 16:56 56.74912 60.79829 776 ft 6 kts
2026-04-28 16:56 56.74927 60.79829 776 ft 0 kts